Location: Bathurst
(33.4193°S, 149.5775°E)
Time: 23:24:23
(UTC+10:00)

Vanguard 3 - Pass Details

Date: 25 June 2021
Orbit: 508 x 3261 km, 33.4° (Epoch: 25 July)

Event Time Altitude Azimuth Distance (km) Brightness Sun altitude
Rises 16:54:31 0° 295° (WNW) 5,764 14.9 0.7°
Reaches altitude 10° 16:57:47 10° 296° (WNW) 5,055 13.6 0.1°
Maximum altitude 17:14:07 78° 19° (NNE) 3,189 10.2 -3.0°
Drops below altitude 10° 17:34:15 10° 101° (E) 6,035 10.9 -6.8°
Enters shadow 17:35:53 - 101° (E) 6,352 11.0 -7.1°
